EUTELSAT 10A

Last updated on Wed Jan 10 2024 00:02:38 GMT+0000 (Coordinated Universal Time)

1 34710U 09016A 24009.57470999 -.00000143 00000+0 00000+0 0 9993 2 34710 0.6872 91.1342 0004311 123.9328 100.1926 0.98121672 32311
UTC large
Height (km)
Speed (km/s)
/
Latitude / Longitude
Inclination (degrees)
Orbital Period (minutes)
Azimuth
Elevation
Range (km)
Doppler Factor

Next 0 passes for location: London (51.5072 / 0.1276)

Sorry there are no passes over London.
EUTELSAT 10A